Weather History for 78958 - January, 2014

Change the Weather History Date:

Wednesday, January 1, 2014

  Actual Average Record
Temperature  
Mean Temperature 78 °F -  
Max Temperature 84 °F 83 °F - ()
Min Temperature 72 °F 73 °F - ()
Cooling Degree Days 13    
Growing Degree Days 28 (Base 50)    
Moisture  
Dew Point 73 °F    
Average Humidity 84    
Maximum Humidity 94    
Minimum Humidity 69    
Precipitation  
Precipitation 0.28 in - - ()
Sea Level Pressure  
Sea Level Pressure 29.94 in    
Wind  
Wind Speed 12 mph ()    
Max Wind Speed 21 mph    
Max Gust Speed -    
Visibility 6.4 miles    
Events Rain    
T = Trace of Precipitation, MM = Missing Value Source: Averaged Metar Reports

Daily Weather History Graph

Daily Weather History Graph

Search for Another Location

Airport or City:

Trip Planner

Search our weather history database for the weather conditions in past years. The results will help you decide how hot, cold, wet, or windy it might be!

Date:

Astronomy

Jan. 01, 2014 Rise Set
Actual Time 6:27 AM AST 5:53 PM AST
Civil Twilight 6:04 AM AST 6:16 PM AST
Nautical Twilight 5:38 AM AST 6:43 PM AST
Astronomical Twilight 5:12 AM AST 7:09 PM AST
Moon 6:24 AM AST (1/1) 6:20 PM AST (1/1)
Length of Visible Light 12h 12m
Length of Day
11h 26m
New Moon, 0% of the Moon is Illuminated
Jan 1
New Moon
Jan 7
First Quarter
Jan 16
Full
Jan 24
Last Quarter
Jan 30
New

Hourly Weather History & Observations

Time (AST) Temp. Heat Index Dew Point Humidity Pressure Visibility Wind Dir Wind Speed Gust Speed Precip Events Conditions
12:00 AM 78.8 °F - 71.6 °F 78% 29.95 in 6.2 mi East 8.1 mph - N/A   Scattered Clouds
1:00 AM 78.8 °F - 73.4 °F 83% 29.95 in 6.2 mi East 9.2 mph - N/A   Partly Cloudy
2:00 AM 76 °F - 73 °F 89% 29.94 in 11 mi ENE 13.8 mph - - Rain Light Rain Showers
2:00 AM 77.0 °F - 73.4 °F 89% 29.92 in 6.2 mi ENE 13.8 mph - N/A Rain Light Rain Showers
3:00 AM 77.0 °F - 73.4 °F 89% 29.92 in 6.2 mi East 12.7 mph - N/A   Scattered Clouds
4:00 AM 77.0 °F - 73.4 °F 89% 29.92 in 6.2 mi ENE 16.1 mph - N/A Rain Light Rain
5:00 AM 75 °F - 73 °F 92% 29.93 in 11 mi East 18.4 mph - - Rain Light Rain
5:00 AM 75.2 °F - 73.4 °F 94% 29.92 in 6.2 mi East 18.4 mph - N/A   Scattered Clouds
6:00 AM 77.0 °F - 71.6 °F 83% 29.92 in 6.2 mi East 11.5 mph - N/A   Mostly Cloudy
7:00 AM 73.4 °F - 71.6 °F 94% 29.95 in 6.2 mi East 18.4 mph - N/A Rain Light Rain
8:00 AM 78 °F - 73 °F 82% 29.99 in 4 mi East 16.1 mph - - Rain Light Rain
8:00 AM 77.0 °F - 73.4 °F 89% 29.98 in 4.3 mi East 16.1 mph - N/A   Mostly Cloudy
9:00 AM 77.0 °F - 71.6 °F 83% 30.01 in 5.0 mi East 11.5 mph - N/A Rain Light Rain
10:00 AM 80.6 °F 85.4 °F 73.4 °F 79% 29.98 in 6.2 mi East 13.8 mph - N/A   Mostly Cloudy
11:00 AM 81 °F - 74 °F 75% 30.00 in 10 mi East 16.1 mph - -   Mostly Cloudy
11:00 AM 80.6 °F 86.2 °F 75.2 °F 84% 29.98 in 6.2 mi East 16.1 mph - N/A   Mostly Cloudy
12:00 PM 82.4 °F 89.5 °F 75.2 °F 79% 29.98 in 6.2 mi East 13.8 mph - N/A   Mostly Cloudy
1:00 PM 82.4 °F 89.5 °F 75.2 °F 79% 29.95 in 6.2 mi East 16.1 mph - N/A   Mostly Cloudy
2:00 PM 83 °F - 74 °F 69% 29.92 in 10 mi East 15.0 mph - -   Widespread Dust
2:00 PM 82.4 °F 89.5 °F 75.2 °F 79% 3.04 in 6.2 mi East 15.0 mph - N/A   Mostly Cloudy
3:00 PM 80.6 °F 86.2 °F 75.2 °F 84% 29.89 in 4.3 mi East 13.8 mph - N/A   Mostly Cloudy
4:00 PM 82.4 °F 90.9 °F 77.0 °F 84% 29.92 in 1.9 mi ESE 20.7 mph - N/A Rain Rain Showers
4:16 PM 75.2 °F - 73.4 °F 94% 29.89 in 4.3 mi East 13.8 mph - N/A Rain Light Rain Showers
5:00 PM 76 °F - 71 °F 82% 29.90 in - East 11.5 mph - - Rain Light Rain Showers
5:00 PM 75.2 °F - 71.6 °F 89% 29.89 in 6.2 mi East 11.5 mph - N/A   Mostly Cloudy
6:00 PM 77.0 °F - 75.2 °F 94% 29.89 in 6.2 mi East 9.2 mph - N/A   Mostly Cloudy
7:00 PM 78.8 °F - 73.4 °F 83% 29.89 in 6.2 mi East 11.5 mph - N/A   Scattered Clouds
8:00 PM 78 °F - 73 °F 80% 29.94 in 7 mi East 17.3 mph - -   Mostly Cloudy
8:00 PM 78.8 °F - 73.4 °F 83% 29.92 in 6.2 mi East 17.3 mph - N/A   Scattered Clouds
9:00 PM 78.8 °F - 73.4 °F 83% 29.92 in 6.2 mi East 18.4 mph - N/A   Scattered Clouds
10:00 PM 78.8 °F - 73.4 °F 83% 29.95 in 6.2 mi East 11.5 mph - N/A   Scattered Clouds
11:00 PM 79 °F - 74 °F 79% 29.94 in 7 mi East 17.3 mph - -   Widespread Dust
11:00 PM 78.8 °F - 73.4 °F 83% 29.95 in 6.2 mi East 17.3 mph - N/A   Partly Cloudy